When you browse on this site, cookies collect data to enhance your experience and personalize the content and advertising you see.
Visit our Privacy Policy to learn more. By continuing to use the site, you agree to this use of cookies and data.
  • In Deutschland
  • Länderverzeichnis
  • Für 7 Tage
  • Wassertemperatur
  • Wetterkarte
  • Widgets
  • user-avatar
    Anmelden

    Stündliche Wetter San Juan

    Heute, 25 August, Sonntag

    Zeit Temperatur Niederschläge Wind Luftdruck Luftfeuchtigkeit
    00:00 +15°C° 0 mm 1 m/S 705 mmHg 52%
    01:00 +14°C° 0 mm 1 m/S 705 mmHg 56%
    02:00 +14°C° 0 mm 1 m/S 704 mmHg 59%
    03:00 +14°C° 0 mm 1 m/S 704 mmHg 61%
    04:00 +13°C° 0 mm 1 m/S 704 mmHg 64%
    05:00 +14°C° 0 mm 1 m/S 705 mmHg 59%
    06:00 +15°C° 0 mm 1 m/S 705 mmHg 54%
    07:00 +16°C° 0 mm 2 m/S 706 mmHg 49%
    08:00 +18°C° 0 mm 2 m/S 706 mmHg 44%
    09:00 +20°C° 0 mm 2 m/S 706 mmHg 39%
    10:00 +23°C° 0 mm 2 m/S 706 mmHg 34%
    11:00 +24°C° 0 mm 3 m/S 706 mmHg 31%
    12:00 +25°C° 0 mm 3 m/S 705 mmHg 28%
    13:00 +26°C° 0 mm 3 m/S 705 mmHg 25%
    14:00 +26°C° 0 mm 3 m/S 705 mmHg 25%
    15:00 +26°C° 0 mm 4 m/S 705 mmHg 24%
    16:00 +27°C° 0 mm 4 m/S 705 mmHg 23%
    17:00 +23°C° 0 mm 4 m/S 705 mmHg 28%
    18:00 +21°C° 0 mm 3 m/S 706 mmHg 32%
    19:00 +19°C° 0 mm 2 m/S 706 mmHg 36%
    20:00 +19°C° 0 mm 2 m/S 706 mmHg 38%
    21:00 +19°C° 0 mm 1 m/S 706 mmHg 40%
    22:00 +18°C° 0 mm 1 m/S 706 mmHg 42%
    23:00 +18°C° 0 mm 1 m/S 706 mmHg 45%

    Morgen, 26 August, Montag

    Zeit Temperatur Niederschläge Wind Luftdruck Luftfeuchtigkeit
    00:00 +16°C° 0 mm 1 m/S 706 mmHg 48%
    01:00 +15°C° 0 mm 1 m/S 706 mmHg 50%
    02:00 +15°C° 0 mm 1 m/S 705 mmHg 54%
    03:00 +14°C° 0 mm 1 m/S 705 mmHg 58%
    04:00 +13°C° 0 mm 1 m/S 705 mmHg 62%
    05:00 +15°C° 0 mm 1 m/S 705 mmHg 56%
    06:00 +16°C° 0 mm 1 m/S 705 mmHg 51%
    07:00 +18°C° 0 mm 1 m/S 706 mmHg 46%
    08:00 +19°C° 0 mm 2 m/S 706 mmHg 40%
    09:00 +23°C° 0 mm 2 m/S 706 mmHg 33%
    10:00 +25°C° 0 mm 3 m/S 706 mmHg 27%
    11:00 +27°C° 0 mm 3 m/S 705 mmHg 24%
    12:00 +28°C° 0 mm 3 m/S 705 mmHg 21%
    13:00 +30°C° 0 mm 2 m/S 705 mmHg 18%
    14:00 +29°C° 0 mm 3 m/S 705 mmHg 19%
    15:00 +29°C° 0 mm 4 m/S 705 mmHg 20%
    16:00 +29°C° 0 mm 5 m/S 705 mmHg 21%
    17:00 +27°C° 0 mm 5 m/S 705 mmHg 24%
    18:00 +25°C° 0 mm 4 m/S 706 mmHg 28%
    19:00 +22°C° 0 mm 4 m/S 706 mmHg 31%
    20:00 +21°C° 0 mm 3 m/S 707 mmHg 32%
    21:00 +20°C° 0 mm 3 m/S 707 mmHg 32%
    22:00 +20°C° 0 mm 3 m/S 708 mmHg 32%
    23:00 +19°C° 0 mm 2 m/S 708 mmHg 34%

    übermorgen, 27 August, Dienstag

    Zeit Temperatur Niederschläge Wind Luftdruck Luftfeuchtigkeit
    00:00 +18°C° 0 mm 2 m/S 708 mmHg 36%
    01:00 +18°C° 0 mm 2 m/S 708 mmHg 37%
    02:00 +17°C° 0 mm 2 m/S 708 mmHg 43%
    03:00 +16°C° 0 mm 3 m/S 708 mmHg 49%
    04:00 +14°C° 0 mm 4 m/S 707 mmHg 55%
    05:00 +14°C° 0 mm 3 m/S 708 mmHg 55%
    06:00 +14°C° 0 mm 3 m/S 708 mmHg 56%
    07:00 +15°C° 0 mm 2 m/S 708 mmHg 56%
    08:00 +17°C° 0 mm 2 m/S 709 mmHg 51%
    09:00 +19°C° 0 mm 2 m/S 709 mmHg 46%
    10:00 +20°C° 0 mm 2 m/S 709 mmHg 41%
    11:00 +23°C° 0 mm 2 m/S 708 mmHg 38%
    12:00 +24°C° 0 mm 2 m/S 708 mmHg 34%
    13:00 +26°C° 0 mm 1 m/S 707 mmHg 31%
    14:00 +26°C° 0 mm 1 m/S 707 mmHg 30%
    15:00 +27°C° 0 mm 1 m/S 706 mmHg 29%
    16:00 +27°C° 0 mm 2 m/S 706 mmHg 28%
    17:00 +25°C° 0 mm 1 m/S 705 mmHg 33%
    18:00 +22°C° 0 mm 1 m/S 705 mmHg 39%
    19:00 +20°C° 0 mm 1 m/S 705 mmHg 44%
    20:00 +20°C° 0 mm 1 m/S 705 mmHg 46%
    21:00 +19°C° 0 mm 1 m/S 704 mmHg 47%
    22:00 +19°C° 0 mm 1 m/S 704 mmHg 49%
    23:00 +19°C° 0 mm 1 m/S 704 mmHg 47%

    28 August, Mittwoch

    Zeit Temperatur Niederschläge Wind Luftdruck Luftfeuchtigkeit
    00:00 +19°C° 0 mm 1 m/S 703 mmHg 45%
    01:00 +18°C° 0 mm 2 m/S 703 mmHg 44%
    02:00 +18°C° 0 mm 2 m/S 702 mmHg 44%
    03:00 +18°C° 0 mm 2 m/S 702 mmHg 44%
    04:00 +17°C° 0 mm 2 m/S 701 mmHg 44%
    05:00 +18°C° 0 mm 2 m/S 702 mmHg 39%
    06:00 +20°C° 0 mm 2 m/S 702 mmHg 34%
    07:00 +21°C° 0 mm 2 m/S 703 mmHg 29%
    08:00 +25°C° 0 mm 2 m/S 703 mmHg 25%
    09:00 +28°C° 0 mm 3 m/S 704 mmHg 21%
    10:00 +32°C° 0 mm 4 m/S 704 mmHg 17%
    11:00 +34°C° 0 mm 4 m/S 703 mmHg 14%
    12:00 +36°C° 0 mm 4 m/S 703 mmHg 11%
    13:00 +37°C° 0 mm 4 m/S 703 mmHg 8%
    14:00 +37°C° 0 mm 4 m/S 702 mmHg 8%
    15:00 +37°C° 0 mm 4 m/S 702 mmHg 8%
    16:00 +37°C° 0 mm 4 m/S 702 mmHg 8%
    17:00 +34°C° 0 mm 3 m/S 702 mmHg 13%
    18:00 +29°C° 0 mm 3 m/S 701 mmHg 17%
    19:00 +26°C° 0 mm 3 m/S 701 mmHg 22%
    20:00 +25°C° 0 mm 2 m/S 702 mmHg 22%
    21:00 +25°C° 0 mm 2 m/S 702 mmHg 23%
    22:00 +24°C° 0 mm 2 m/S 702 mmHg 23%
    23:00 +23°C° 0 mm 2 m/S 702 mmHg 23%

    29 August, Donnerstag

    Zeit Temperatur Niederschläge Wind Luftdruck Luftfeuchtigkeit
    00:00 +21°C° 0 mm 3 m/S 702 mmHg 23%
    01:00 +20°C° 0 mm 3 m/S 702 mmHg 22%
    02:00 +19°C° 0 mm 4 m/S 702 mmHg 25%
    03:00 +19°C° 0 mm 6 m/S 702 mmHg 28%
    04:00 +17°C° 0 mm 7 m/S 702 mmHg 31%
    05:00 +16°C° 0 mm 7 m/S 703 mmHg 36%
    06:00 +16°C° 0 mm 7 m/S 703 mmHg 41%
    07:00 +15°C° 0 mm 7 m/S 704 mmHg 46%
    08:00 +16°C° 0 mm 7 m/S 704 mmHg 44%
    09:00 +17°C° 0 mm 7 m/S 705 mmHg 42%
    10:00 +18°C° 0 mm 7 m/S 705 mmHg 40%
    11:00 +20°C° 0 mm 8 m/S 704 mmHg 37%
    12:00 +21°C° 0 mm 8 m/S 704 mmHg 34%
    13:00 +22°C° 0 mm 8 m/S 704 mmHg 32%
    14:00 +21°C° 0 mm 8 m/S 704 mmHg 32%
    15:00 +21°C° 0 mm 8 m/S 704 mmHg 32%
    16:00 +20°C° 0 mm 8 m/S 704 mmHg 31%
    17:00 +18°C° 0 mm 7 m/S 704 mmHg 33%
    18:00 +16°C° 0 mm 6 m/S 705 mmHg 35%
    19:00 +14°C° 0 mm 5 m/S 706 mmHg 36%
    20:00 +14°C° 0 mm 5 m/S 706 mmHg 36%
    21:00 +13°C° 0 mm 4 m/S 706 mmHg 37%
    22:00 +12°C° 0 mm 4 m/S 706 mmHg 37%
    23:00 +11°C° 0 mm 4 m/S 706 mmHg 37%

    30 August, Freitag

    Zeit Temperatur Niederschläge Wind Luftdruck Luftfeuchtigkeit
    00:00 +10°C° 0 mm 3 m/S 705 mmHg 38%
    01:00 +10°C° 0 mm 3 m/S 705 mmHg 38%
    02:00 +9°C° 0 mm 2 m/S 704 mmHg 38%
    03:00 +8°C° 0 mm 2 m/S 704 mmHg 38%
    04:00 +8°C° 0 mm 2 m/S 704 mmHg 38%
    05:00 +9°C° 0 mm 2 m/S 704 mmHg 36%
    06:00 +10°C° 0 mm 2 m/S 705 mmHg 34%
    07:00 +11°C° 0 mm 1 m/S 705 mmHg 33%
    08:00 +13°C° 0 mm 2 m/S 705 mmHg 30%
    09:00 +14°C° 0 mm 4 m/S 705 mmHg 27%
    10:00 +16°C° 0 mm 5 m/S 705 mmHg 24%
    11:00 +17°C° 0 mm 5 m/S 704 mmHg 23%
    12:00 +17°C° 0 mm 5 m/S 704 mmHg 21%
    13:00 +19°C° 0 mm 5 m/S 704 mmHg 19%
    14:00 +19°C° 0 mm 5 m/S 704 mmHg 18%
    15:00 +20°C° 0 mm 5 m/S 704 mmHg 18%
    16:00 +20°C° 0 mm 5 m/S 704 mmHg 17%
    17:00 +18°C° 0 mm 4 m/S 705 mmHg 20%
    18:00 +15°C° 0 mm 4 m/S 705 mmHg 22%
    19:00 +13°C° 0 mm 3 m/S 706 mmHg 25%
    20:00 +13°C° 0 mm 3 m/S 706 mmHg 26%
    21:00 +13°C° 0 mm 3 m/S 707 mmHg 27%
    22:00 +12°C° 0 mm 3 m/S 707 mmHg 28%
    23:00 +11°C° 0 mm 3 m/S 707 mmHg 29%
    Mehr zeigen